[[{"header":{"parameterUnit":"m.s-1","parameterCategory":1,"la1":30.2991,"la2":30.254,"lo1":-89.0895,"lo2":-89.0444,"dy":0.0017,"dx":0.0017,"nx":28,"ny":28,"refTime":"2024-12-25T03:00:00:Z","depth":0,"parameterNumber":2,"parameterNumberName":"U-component_of_WINDS"},"data":[0,0,0,0,0,0,0,0,0,0,0,0,0,0,0,0,0,0,0,0,0,0,0,0,0,0,0,0,0,0,0,0,0,0,0,0,0,0,0,0,0,0,0,0,0,0,0,0,0,0,0,0,0,0,0,0,0,0,-5.6408,-5.6408,0,-5.6463,-5.6464,-5.6464,-5.6353,-5.6349,-5.6346,-5.6342,-5.6403,-5.6408,-5.6413,0,0,0,0,0,0,0,0,0,0,0,0,0,-5.6211,-5.6215,-5.6408,-5.6408,-5.6409,-5.6463,-5.6464,-5.6464,-5.6354,-5.6349,-5.6345,-5.6341,-5.6402,-5.6408,-5.6414,0,0,0,0,0,0,0,0,0,0,0,0,0,-5.6284,-5.6216,-5.6408,-5.636,-5.6356,-5.6463,-5.6464,-5.6465,-5.6355,-5.6349,-5.6344,-5.6338,-5.64,-5.6407,-5.6415,-5.6571,0,0,-5.6438,-5.6441,0,0,0,0,0,0,0,0,-5.628,-5.6292,-5.6366,-5.6364,-5.636,-5.6395,-5.6416,-5.65,-5.6356,-5.6355,-5.6342,-5.6336,-5.6405,-5.6412,-5.6435,-5.6574,-5.6576,-5.6438,-5.6443,-5.6446,-5.6448,0,0,0,0,0,0,0,-5.6275,-5.6289,-5.643,-5.6368,-5.6364,-5.6338,-5.6342,-5.6432,-5.6411,-5.6355,-5.6347,-5.6355,-5.6403,-5.6428,-5.6435,-5.6577,-5.6438,-5.6445,-5.6449,-5.6452,-5.6848,-5.6854,0,0,0,0,0,0,-5.6276,-5.6285,-5.6428,-5.6431,-5.6306,-5.6346,-5.6351,-5.639,-5.6409,-5.6407,-5.636,-5.635,-5.6418,-5.6427,-5.6437,-5.6621,-5.6446,-5.6453,-5.6457,-5.6843,-5.685,-5.6856,0,0,0,0,0,0,-5.6272,-5.6289,-5.6426,-5.6356,-5.6371,-5.6355,-5.64,-5.6394,-5.6418,-5.6413,-5.6409,-5.6389,-5.6414,-5.6426,-5.6538,-5.6622,-5.6457,-5.6463,-5.6835,-5.6845,-5.6853,-5.6992,0,0,0,0,0,0,-5.6267,-5.6289,-5.6347,-5.6358,-5.6376,-5.6525,-5.6405,-5.6399,-5.6431,-5.6419,-5.6439,-5.6437,-5.641,-5.6528,-5.6546,-5.6629,-5.6469,-5.6828,-5.684,-5.685,-5.6979,-5.7004,-5.7025,0,0,0,0,0,-5.626,-5.6384,-5.635,-5.6368,-5.6447,-5.653,-5.654,-5.6505,-5.6438,-5.6497,-5.6494,-5.6437,-5.661,-5.654,-5.656,-5.6647,-5.6822,-5.6836,-5.6849,-5.6969,-5.6999,-5.7025,0,0,0,0,0,0,-5.6384,-5.6385,-5.6347,-5.6478,-5.6505,-5.6511,-5.6584,-5.6538,-5.6585,-5.6571,-5.6527,-5.6533,-5.6654,-5.6662,-5.6583,-5.68,-5.6705,-5.6723,-5.679,-5.6818,-5.6841,-5.6836,-5.6476,0,0,0,0,0,-5.6426,-5.6492,-5.649,-5.6606,-5.6621,-5.6601,-5.6635,-5.6606,-5.6632,-5.6643,-5.6648,-5.6677,-5.6737,-5.6778,-5.6834,-5.6981,-5.6984,-5.705,-5.7073,-5.7092,-5.7108,-5.7187,-5.7216,-5.6901,-5.69,-5.69,0,0,-5.6515,-5.6524,-5.6568,-5.6631,-5.6648,-5.6718,-5.6611,-5.6689,-5.6741,-5.6655,-5.676,-5.6766,-5.6795,-5.6925,-5.6982,-5.6935,-5.7196,-5.7109,-5.7125,-5.713,-5.7204,-5.7234,-5.726,-5.691,-5.6908,-5.6907,0,0,-5.6712,-5.6725,-5.6823,-5.6842,-5.6869,-5.6855,-5.6879,-5.6893,-5.6892,-5.6997,-5.6934,-5.6997,-5.7102,-5.7126,-5.7152,-5.736,-5.731,-5.738,-5.7499,-5.7577,-5.7601,-5.7623,-5.7697,-5.7725,-5.7396,-5.7396,-5.7397,0,-5.6819,-5.692,-5.688,-5.6962,-5.6993,-5.6918,-5.7018,-5.7039,-5.7084,-5.7107,-5.7053,-5.7185,-5.72,-5.7334,-5.7385,-5.7409,-5.7435,-5.7376,-5.7601,-5.7622,-5.7642,-5.7712,-5.7741,-5.7405,-5.7404,-5.7403,-5.7402,0,-5.705,-5.7122,-5.7198,-5.7242,-5.7281,-5.7372,-5.7347,-5.7392,-5.7361,-5.7353,-5.7462,-5.7477,-5.7534,-5.7565,-5.7535,-5.7696,-5.7666,-5.7608,-5.7512,-5.7681,-5.7747,-5.7773,-5.7417,-5.7414,-5.7411,-5.7409,0,0,-5.7324,-5.7345,-5.7374,-5.7393,-5.7418,-5.7474,-5.7563,-5.7618,-5.7657,-5.7692,-5.7766,-5.7858,-5.7804,-5.7834,-5.7807,-5.7875,-5.8039,-5.7808,-5.7808,-5.785,-5.8217,-5.826,-5.8292,-5.8006,-5.8011,-5.8015,-5.8215,0,-5.7519,-5.7669,-5.7637,-5.7786,-5.7852,-5.7783,-5.7861,-5.7886,-5.7882,-5.7939,-5.7935,-5.8,-5.7925,-5.7942,-5.8007,-5.8005,-5.8112,-5.799,-5.8075,-5.8079,-5.8068,-5.8326,-5.8371,-5.8559,-5.824,-5.8244,-5.8248,0,-5.7765,-5.7807,-5.7963,-5.7978,-5.8004,-5.8074,-5.8123,-5.8178,-5.8206,-5.8198,-5.8233,-5.8193,-5.8283,-5.8187,-5.8311,-5.8229,-5.8263,-5.8268,-5.8274,-5.828,-5.8172,-5.8338,-5.8618,-5.8646,-5.8287,-5.8284,-5.8281,0,-5.7949,-5.8045,-5.815,-5.8169,-5.819,-5.8241,-5.8252,-5.8274,-5.831,-5.8353,-5.8376,-5.8431,-5.846,-5.8504,-5.8481,-5.8413,-5.861,-5.8512,-5.8606,-5.8607,-5.8649,-5.8647,-5.8938,-5.8673,-5.8673,-5.8672,-5.8672,0,-5.8168,-5.8266,-5.8233,-5.8298,-5.8406,-5.8369,-5.8477,-5.8481,-5.8502,-5.8567,-5.8512,-5.8575,-5.8541,-5.8602,-5.8585,-5.869,-5.8704,-5.8702,-5.8696,-5.8706,-5.8706,-5.8726,-5.8712,-5.868,-5.8678,-5.8677,-5.8675,0,-5.8391,-5.8373,-5.8483,-5.8494,-5.8499,-5.8578,-5.8588,-5.8649,-5.8642,-5.8725,-5.8743,-5.8732,-5.8801,-5.8782,-5.8858,-5.8846,-5.898,-5.8958,-5.897,-5.8964,-5.9059,-5.9051,-5.9372,-5.9413,-5.9123,-5.9126,-5.9128,0,-5.8531,-5.8605,-5.8624,-5.8663,-5.8678,-5.8742,-5.8778,-5.8746,-5.8786,-5.8824,-5.8881,-5.8946,-5.8995,-5.9109,-5.9108,-5.9167,-5.9145,-5.9254,-5.9153,-5.9162,-5.9146,-5.9141,-5.9149,-5.9274,-5.9277,-5.928,-5.9282,0,-5.8783,-5.877,-5.8823,-5.8875,-5.8919,-5.8959,-5.8993,-5.9029,-5.8999,-5.9047,-5.9117,-5.9155,-5.9232,-5.9297,-5.935,-5.9364,-5.9319,-5.9314,-5.9339,-5.9349,-5.9353,-5.9352,-5.9023,-5.9306,-5.9304,-5.9302,-5.9301,-5.93,-5.8967,-5.903,-5.9053,-5.9115,-5.9137,-5.9171,-5.9229,-5.9229,-5.9285,-5.9344,-5.9323,-5.9403,-5.9431,-5.9497,-5.9518,-5.9581,-5.954,-5.9576,-5.9585,-5.9594,-5.9606,-5.9344,-5.9591,-5.959,-5.959,-5.9589,-5.9588,0,-5.9215,-5.9227,-5.9284,-5.9333,-5.9383,-5.9336,-5.9372,-5.9416,-5.9487,-5.9516,-5.9566,-5.9647,-5.971,-5.9715,-5.9775,-5.9824,-5.9805,-5.9841,-5.9836,-5.984,-5.9639,-5.9611,-5.9855,-5.9855,-5.9855,-5.9855,-5.9855,-5.9855,-5.9349,-5.9452,-5.9443,-5.9557,-5.9569,-5.9645,-5.967,-5.9702,-5.9725,-5.9817,-5.9868,-5.9871,-5.9891,-5.9952,-6.0009,-6.0009,-6.0033,-6.0077,-6.0069,-5.9881,-5.9855,-5.9829,-5.9803,-6.0083,-6.0083,-6.0265,-6.0266,-6.0268]},{"header":{"parameterUnit":"m.s-1","parameterCategory":1,"la1":30.2991,"la2":30.254,"lo1":-89.0895,"lo2":-89.0444,"dy":0.0017,"dx":0.0017,"nx":28,"ny":28,"refTime":"2024-12-25T03:00:00:Z","depth":0,"parameterNumber":3,"parameterNumberName":"V-component_of_WINDS"},"data":[0,0,0,0,0,0,0,0,0,0,0,0,0,0,0,0,0,0,0,0,0,0,0,0,0,0,0,0,0,0,0,0,0,0,0,0,0,0,0,0,0,0,0,0,0,0,0,0,0,0,0,0,0,0,0,0,0,0,0.0656,0.0657,0,0.0709,0.071,0.071,0.0709,0.0708,0.0708,0.0707,0.0762,0.0764,0.0766,0,0,0,0,0,0,0,0,0,0,0,0,0,0.0557,0.0559,0.0656,0.0657,0.0657,0.0709,0.071,0.071,0.0709,0.0708,0.0707,0.0707,0.0761,0.0764,0.0766,0,0,0,0,0,0,0,0,0,0,0,0,0,0.0604,0.056,0.0656,0.0663,0.0664,0.0709,0.071,0.0711,0.0709,0.0708,0.0707,0.0706,0.076,0.0763,0.0766,0.0808,0,0,0.0776,0.0778,0,0,0,0,0,0,0,0,0.0601,0.0608,0.0661,0.0663,0.0664,0.0701,0.0695,0.0743,0.071,0.0692,0.0707,0.0706,0.0743,0.0747,0.0759,0.081,0.0813,0.0776,0.0778,0.078,0.0781,0,0,0,0,0,0,0,0.0598,0.0605,0.0677,0.0662,0.0664,0.0665,0.067,0.0704,0.0723,0.0694,0.0694,0.07,0.0743,0.0756,0.0761,0.0813,0.0776,0.0779,0.0781,0.0782,0.0905,0.0907,0,0,0,0,0,0,0.0593,0.0603,0.0675,0.0679,0.0629,0.0667,0.0673,0.069,0.0722,0.0726,0.0701,0.07,0.0751,0.0757,0.0763,0.0816,0.078,0.0783,0.0785,0.0904,0.0906,0.0907,0,0,0,0,0,0,0.0591,0.06,0.0673,0.0641,0.065,0.067,0.0689,0.0692,0.0705,0.0728,0.0731,0.0711,0.0751,0.0758,0.0797,0.0818,0.0784,0.0787,0.0902,0.0904,0.0906,0.0921,0,0,0,0,0,0,0.0588,0.0599,0.0614,0.0641,0.0652,0.0706,0.069,0.0694,0.0711,0.071,0.0738,0.0742,0.0751,0.0793,0.0801,0.0822,0.079,0.0901,0.0903,0.0906,0.0919,0.0923,0.0927,0,0,0,0,0,0.0585,0.0615,0.0614,0.0623,0.0671,0.0707,0.0713,0.0723,0.0712,0.0728,0.0744,0.0741,0.0814,0.0797,0.0806,0.0828,0.0899,0.0903,0.0905,0.0917,0.0922,0.0927,0,0,0,0,0,0,0.0589,0.0618,0.0618,0.0658,0.068,0.0707,0.0727,0.0728,0.0753,0.0751,0.0762,0.0769,0.0809,0.0822,0.0802,0.0872,0.0856,0.0861,0.0861,0.0867,0.0871,0.0867,0.0792,0,0,0,0,0,0.0594,0.0621,0.0645,0.0678,0.069,0.0707,0.0723,0.0728,0.0752,0.0761,0.0779,0.0802,0.0831,0.0849,0.0876,0.0921,0.0929,0.0941,0.0945,0.0948,0.0953,0.0981,0.0987,0.0917,0.0917,0.0917,0,0,0.0606,0.0625,0.0641,0.068,0.0698,0.0726,0.0714,0.0744,0.0766,0.0766,0.0805,0.0819,0.0846,0.0889,0.0908,0.0901,0.0974,0.0952,0.0954,0.0957,0.0985,0.0991,0.0997,0.0919,0.0919,0.0918,0,0,0.0642,0.0658,0.0689,0.0708,0.0736,0.0748,0.0755,0.0783,0.0792,0.0832,0.0833,0.086,0.0908,0.0928,0.0945,0.0993,0.0993,0.1001,0.1023,0.1051,0.1056,0.1061,0.1081,0.1088,0.1006,0.1006,0.1006,0,0.0653,0.0696,0.0705,0.0736,0.0755,0.0757,0.0789,0.0807,0.0842,0.0855,0.0847,0.091,0.0928,0.0977,0.099,0.1002,0.1013,0.0998,0.1055,0.106,0.1065,0.1084,0.1091,0.1007,0.1007,0.1007,0.1006,0,0.0709,0.0739,0.0761,0.0796,0.0817,0.0849,0.0865,0.0885,0.0889,0.0903,0.0945,0.0967,0.1,0.1012,0.1016,0.1064,0.1059,0.1052,0.1037,0.1072,0.1091,0.1098,0.1008,0.1008,0.1008,0.1007,0,0,0.0748,0.0791,0.0799,0.0816,0.0849,0.0872,0.0906,0.0939,0.0957,0.0982,0.1012,0.1054,0.105,0.1069,0.1076,0.1099,0.114,0.109,0.1091,0.1101,0.1197,0.1204,0.1212,0.114,0.1141,0.1142,0.1196,0,0.079,0.0848,0.086,0.0911,0.0941,0.0945,0.0974,0.0998,0.1012,0.104,0.1056,0.1087,0.1077,0.1089,0.1112,0.113,0.116,0.1126,0.117,0.1171,0.1165,0.1221,0.1227,0.1276,0.1203,0.1204,0.1205,0,0.0845,0.0873,0.0928,0.096,0.0973,0.0999,0.1033,0.1059,0.1087,0.1096,0.1119,0.1124,0.1161,0.1144,0.1196,0.1173,0.1192,0.1203,0.1206,0.1211,0.1191,0.123,0.1291,0.13,0.1216,0.1215,0.1214,0,0.0871,0.0923,0.0963,0.0978,0.1015,0.1034,0.1051,0.1078,0.1099,0.1128,0.1142,0.1176,0.1194,0.1221,0.1236,0.1221,0.1288,0.1271,0.1299,0.1298,0.1313,0.1312,0.1381,0.1322,0.1322,0.1322,0.1322,0,0.0917,0.0951,0.0976,0.1001,0.104,0.1054,0.1093,0.111,0.1135,0.1165,0.1169,0.1197,0.1214,0.1246,0.1257,0.1301,0.1309,0.1319,0.1322,0.1319,0.1318,0.1333,0.133,0.1324,0.1323,0.1323,0.1323,0,0.0953,0.097,0.1016,0.1048,0.1058,0.1085,0.1114,0.114,0.1155,0.1193,0.1202,0.1226,0.1264,0.1281,0.1326,0.1335,0.1385,0.1385,0.1376,0.1378,0.1405,0.1403,0.1487,0.15,0.143,0.1431,0.1431,0,0.0982,0.1009,0.1045,0.1066,0.1084,0.1116,0.1138,0.1153,0.1176,0.1213,0.1235,0.1272,0.1303,0.1363,0.1385,0.1421,0.1423,0.145,0.1429,0.1427,0.1427,0.1426,0.1431,0.1454,0.1455,0.1456,0.1456,0,0.1033,0.1041,0.1072,0.1108,0.1134,0.1162,0.119,0.1207,0.1227,0.1253,0.1292,0.1316,0.1364,0.1403,0.1441,0.1459,0.1462,0.1463,0.1472,0.147,0.1465,0.1471,0.1389,0.1461,0.146,0.146,0.146,0.1459,0.1068,0.1093,0.1124,0.116,0.1183,0.121,0.1237,0.1256,0.1289,0.1329,0.1337,0.1379,0.141,0.1462,0.1482,0.1516,0.151,0.1522,0.1526,0.1529,0.1532,0.1458,0.1523,0.1523,0.1523,0.1523,0.1523,0,0.1121,0.1142,0.1174,0.1215,0.1244,0.1244,0.1276,0.1301,0.1338,0.1366,0.1398,0.1444,0.1482,0.1509,0.1548,0.1571,0.1573,0.1581,0.158,0.1585,0.1534,0.1523,0.1578,0.1578,0.1578,0.1578,0.1578,0.1578,0.1152,0.1197,0.1209,0.1266,0.1287,0.1328,0.1347,0.1373,0.1397,0.1449,0.1481,0.1498,0.1527,0.1569,0.1605,0.1612,0.1627,0.1635,0.1642,0.1594,0.1588,0.1583,0.1573,0.1638,0.1638,0.1691,0.1692,0.1692]}]]